Location: Dackenheim
(49.5215°N, 8.1854°E)
Time: 06:32:40
(UTC+00:00)

AO-85 - Pass Details

Date: 18 March 2026
Orbit: 507 x 686 km, 64.8° (Epoch: 14 April)

Event Time Altitude Azimuth Distance (km) Brightness Sun altitude
Exits shadow 03:00:00 51° 102° (ESE) 666 ? -24.9°
Drops below altitude 10° 03:03:25 10° 48° (NE) 1,745 ? -24.4°
Sets 03:05:35 0° 43° (NE) 2,626 ? -24.1°
